Date,TemperatureHighF,TemperatureAvgF,TemperatureLowF,DewpointHighF,DewpointAvgF,DewpointLowF,HumidityHigh,HumidityAvg,HumidityLow,PressureMaxIn,PressureMinIn,WindSpeedMaxMPH,WindSpeedAvgMPH,GustSpeedMaxMPH,PrecipitationSumIn
2013-4-1,52.1,42.5,34.0,43.5,39.0,23.1,97,88,64,29.87,29.49,8,4,18,0.61
2013-4-2,38.1,32.1,26.9,23.1,16.7,10.6,75,54,34,29.81,29.65,6,3,15,0.00
2013-4-3,42.4,34.1,27.9,21.9,16.0,11.0,78,48,32,30.01,29.79,10,5,23,0.00
2013-4-4,51.5,38.6,29.5,33.7,18.6,7.5,79,47,19,30.19,29.96,8,4,18,0.00
2013-4-5,50.4,43.1,37.4,37.4,31.9,23.6,79,65,41,29.97,29.64,10,4,17,0.00
2013-4-6,40.4,33.2,26.8,25.6,10.0,1.7,64,39,21,30.35,29.78,10,4,22,0.00
2013-4-7,43.6,36.2,22.9,39.7,26.3,9.8,87,68,50,30.35,29.97,14,5,27,0.00
2013-4-8,60.7,48.3,38.6,40.5,37.3,33.6,94,69,41,30.15,29.89,8,3,21,0.00
2013-4-9,44.1,42.1,38.0,42.9,39.6,33.4,97,91,74,30.14,29.89,7,2,13,0.29
2013-4-10,56.5,44.5,38.3,47.3,42.5,37.5,99,93,66,29.99,29.88,5,1,10,0.12
2013-4-11,52.0,44.4,37.2,43.9,29.1,15.4,97,60,26,30.19,29.86,7,3,16,0.00
2013-4-12,37.7,34.7,33.0,33.0,24.1,14.6,96,68,41,30.27,29.89,6,2,10,0.26
2013-4-13,46.0,37.9,32.8,38.9,35.1,31.9,97,90,74,29.92,29.78,5,2,10,0.04
2013-4-14,49.1,42.4,35.7,43.8,39.7,33.1,96,90,71,30.17,29.90,4,1,11,0.20
2013-4-15,51.4,40.7,29.3,42.5,36.2,28.0,96,84,65,30.44,30.17,6,2,12,0.00
2013-4-16,49.7,45.0,40.6,47.2,41.6,38.5,95,88,75,30.44,29.94,13,6,26,0.02
2013-4-17,60.7,51.7,40.6,49.3,34.0,22.8,94,55,25,30.35,29.95,8,4,22,0.00
2013-4-18,48.6,42.3,31.2,40.4,29.1,20.3,84,61,34,30.48,30.18,10,3,18,0.00
2013-4-19,58.9,50.8,44.9,56.1,49.3,40.4,99,95,84,30.18,29.66,11,6,23,0.00
2013-4-20,58.6,52.6,44.5,58.6,44.0,27.3,100,76,38,30.13,29.57,11,4,19,0.37
2013-4-21,50.7,41.9,30.8,27.8,22.4,14.2,71,48,24,30.71,30.13,6,3,16,0.00
2013-4-22,49.2,38.1,26.9,34.4,24.9,15.7,88,62,30,30.82,30.67,8,2,13,0.00
2013-4-23,43.5,36.9,27.3,41.9,34.4,25.5,96,91,79,30.67,30.21,5,2,11,0.01
2013-4-24,56.7,48.1,42.1,52.6,46.3,41.1,98,94,84,30.21,29.76,8,4,15,0.29
2013-4-25,63.3,53.1,42.2,51.7,38.5,26.0,98,63,32,30.28,29.81,9,4,21,0.04
2013-4-26,57.6,46.1,31.5,35.7,31.9,27.9,89,60,37,30.44,30.28,6,2,11,0.00
2013-4-27,57.3,44.5,30.4,41.6,36.5,28.6,95,75,51,30.42,30.31,5,2,9,0.00
2013-4-28,63.6,47.9,32.4,43.9,37.3,31.1,97,70,40,30.35,30.25,8,2,14,0.00
2013-4-29,61.6,47.7,32.4,46.8,40.3,30.6,96,77,43,30.30,30.24,7,2,13,0.00
2013-4-30,65.8,49.7,33.8,49.7,37.9,31.4,98,69,34,30.38,30.26,6,2,12,0.00